QPF
0.00 0.00 0.00 0.00 0.00 0.00 0.00 0.00 0.00 0.00 0.00 0.00 0.00 0.00 0.00 0.00 0.00 0.00 0.00 0.00 0.00 0.00 0.00 0.00 0.00 0.00 0.00 0.00 0.04 0.04 0.01 0.00 0.00 0.00 0.00 0.00 0.00 0.00 0.00 0.00 0.00 0.00 0.00 0.00 0.00 0.00 0.00 0.00 0.00
0.00 0.00 0.00 0.00 0.00 0.00 0.00 0.00 0.00 0.00 0.00 0.00 0.00 0.00 0.00 0.00 0.00 0.00 0.00 0.00 0.00 0.00 0.00 0.00 0.00 0.00 0.00 0.00 0.03 0.04 0.01 0.00 0.00 0.00 0.00 0.00 0.00 0.00 0.00 0.00 0.00 0.00 0.00 0.00 0.00 0.00 0.00 0.00 0.00
0.00 0.00 0.00 0.00 0.00 0.00 0.00 0.00 0.00 0.00 0.00 0.00 0.00 0.00 0.00 0.00 0.00 0.00 0.00 0.00 0.00 0.00 0.00 0.00 0.00 0.00 0.00 0.00 0.01 0.02 0.01 0.00 0.00 0.00 0.00 0.00 0.00 0.00 0.00 0.00 0.00 0.00 0.00 0.00 0.00 0.00 0.00 0.00 0.00
0.00 0.00 0.00 0.00 0.00 0.00 0.00 0.00 0.00 0.00 0.00 0.00 0.00 0.00 0.00 0.00 0.00 0.00 0.00 0.00 0.00 0.00 0.00 0.00 0.00 0.00 0.00 0.00 0.00 0.00 0.00 0.00 0.00 0.00 0.00 0.00 0.00 0.00 0.00 0.00 0.00 0.00 0.00 0.00 0.00 0.00 0.00 0.00 0.00
0.00 0.00 0.00 0.00 0.00 0.00 0.00 0.00 0.00 0.00 0.00 0.00 0.00 0.00 0.00 0.00 0.00 0.00 0.00 0.00 0.00 0.00 0.00 0.00 0.00 0.00 0.00 0.00 0.00 0.00 0.00 0.00 0.00 0.00 0.00 0.00 0.00 0.00 0.00 0.00 0.00 0.00 0.00 0.00 0.00 0.00 0.00 0.00 0.00
0.00 0.00 0.00 0.00 0.00 0.00 0.00 0.00 0.00 0.00 0.00 0.00 0.00 0.00 0.00 0.00 0.00 0.00 0.00 0.00 0.00 0.00 0.00 0.00 0.00 0.00 0.00 0.00 0.00 0.00 0.00 0.00 0.00 0.00 0.00 0.00 0.00 0.00 0.00 0.00 0.00 0.00 0.00 0.00 0.00 0.00 0.00 0.00 0.00
0.00 0.00 0.00 0.00 0.00 0.00 0.00 0.00 0.00 0.00 0.00 0.00 0.00 0.00 0.00 0.00 0.00 0.00 0.00 0.00 0.00 0.00 0.00 0.00 0.00 0.00 0.00 0.00 0.00 0.00 0.00 0.00 0.00 0.00 0.00 0.00 0.00 0.00 0.00 0.00 0.00 0.00 0.00 0.00 0.00 0.00 0.00 0.00 0.00
0.00 0.00 0.00 0.00 0.00 0.00 0.00 0.00 0.00 0.00 0.00 0.00 0.00 0.00 0.00 0.00 0.00 0.00 0.00 0.00 0.00 0.00 0.00 0.00 0.00 0.00 0.00 0.00 0.00 0.00 0.00 0.00 0.00 0.00 0.00 0.00 0.00 0.00 0.00 0.00 0.00 0.00 0.00 0.00 0.00 0.00 0.00 0.00 0.00
0.00 0.00 0.00 0.00 0.00 0.00 0.00 0.00 0.00 0.00 0.00 0.00 0.00 0.00 0.00 0.00 0.00 0.00 0.00 0.00 0.00 0.00 0.00 0.00 0.00 0.00 0.00 0.00 0.00 0.00 0.00 0.00 0.00 0.00 0.00 0.00 0.00 0.00 0.00 0.00 0.00 0.00 0.00 0.00 0.00 0.00 0.00 0.00 0.00
0.00 0.00 0.00 0.00 0.00 0.00 0.00 0.00 0.00 0.00 0.00 0.00 0.00 0.00 0.00 0.00 0.00 0.00 0.00 0.00 0.00 0.00 0.00 0.00 0.00 0.00 0.00 0.00 0.00 0.00 0.00 0.00 0.00 0.00 0.00 0.00 0.00 0.00 0.00 0.00 0.00 0.00 0.00 0.00 0.00 0.00 0.00 0.00 0.00
0.00 0.00 0.00 0.00 0.00 0.00 0.00 0.00 0.00 0.00 0.00 0.00 0.00 0.00 0.00 0.00 0.00 0.00 0.00 0.00 0.00 0.00 0.00 0.00 0.00 0.00 0.00 0.00 0.00 0.00 0.00 0.00 0.00 0.00 0.00 0.00 0.00 0.00 0.00 0.00 0.00 0.00 0.00 0.00 0.00 0.00 0.00 0.00 0.00
0.00 0.00 0.00 0.00 0.00 0.00 0.00 0.00 0.00 0.00 0.00 0.00 0.00 0.00 0.00 0.00 0.00 0.00 0.00 0.00 0.00 0.00 0.00 0.00 0.00 0.00 0.00 0.00 0.00 0.00 0.00 0.00 0.00 0.00 0.00 0.00 0.00 0.00 0.00 0.00 0.00 0.00 0.00 0.00 0.00 0.00 0.00 0.00 0.00
0.00 0.00 0.00 0.00 0.00 0.00 0.00 0.00 0.00 0.00 0.00 0.00 0.00 0.00 0.00 0.00 0.00 0.00 0.00 0.00 0.00 0.00 0.00 0.00 0.00 0.00 0.00 0.00 0.00 0.00 0.00 0.00 0.00 0.00 0.00 0.00 0.00 0.00 0.00 0.00 0.00 0.00 0.00 0.00 0.00 0.00 0.00 0.00 0.00
0.00 0.00 0.00 0.00 0.00 0.00 0.00 0.00 0.00 0.00 0.00 0.00 0.00 0.00 0.00 0.00 0.00 0.00 0.00 0.00 0.00 0.00 0.00 0.00 0.00 0.00 0.00 0.00 0.00 0.00 0.00 0.00 0.00 0.00 0.00 0.00 0.00 0.00 0.00 0.00 0.00 0.00 0.00 0.00 0.00 0.00 0.00 0.00 0.00
0.00 0.00 0.00 0.00 0.00 0.00 0.00 0.00 0.00 0.00 0.00 0.00 0.00 0.00 0.00 0.00 0.00 0.00 0.00 0.00 0.00 0.00 0.00 0.00 0.00 0.00 0.00 0.00 0.00 0.00 0.00 0.00 0.00 0.00 0.00 0.00 0.00 0.00 0.00 0.00 0.00 0.00 0.00 0.00 0.00 0.00 0.00 0.00 0.00
0.00 0.00 0.00 0.00 0.00 0.00 0.00 0.00 0.00 0.00 0.00 0.00 0.00 0.00 0.00 0.00 0.00 0.00 0.00 0.00 0.00 0.00 0.00 0.00 0.00 0.00 0.00 0.00 0.00 0.00 0.00 0.00 0.00 0.00 0.00 0.00 0.00 0.00 0.00 0.00 0.00 0.00 0.00 0.00 0.00 0.00 0.00 0.00 0.00
0.00 0.00 0.00 0.00 0.00 0.00 0.00 0.00 0.00 0.00 0.00 0.00 0.00 0.00 0.00 0.00 0.00 0.00 0.00 0.00 0.00 0.00 0.00 0.00 0.00 0.00 0.00 0.00 0.00 0.00 0.00 0.00 0.00 0.00 0.00 0.00 0.00 0.00 0.00 0.00 0.00 0.00 0.00 0.00 0.00 0.00 0.00 0.00 0.00
0.00 0.00 0.00 0.00 0.00 0.00 0.00 0.00 0.00 0.00 0.00 0.00 0.00 0.00 0.00 0.00 0.00 0.00 0.00 0.00 0.00 0.00 0.00 0.00 0.00 0.00 0.00 0.00 0.00 0.00 0.00 0.00 0.00 0.00 0.00 0.00 0.00 0.00 0.00 0.00 0.00 0.00 0.00 0.00 0.00 0.00 0.00 0.00 0.00
0.00 0.00 0.00 0.00 0.00 0.00 0.00 0.00 0.00 0.00 0.00 0.00 0.00 0.00 0.00 0.00 0.00 0.00 0.00 0.00 0.00 0.00 0.00 0.00 0.00 0.00 0.00 0.00 0.00 0.00 0.00 0.00 0.00 0.00 0.00 0.00 0.00 0.00 0.00 0.00 0.00 0.00 0.00 0.00 0.00 0.00 0.00 0.00 0.00
0.00 0.00 0.00 0.00 0.00 0.00 0.00 0.00 0.00 0.00 0.00 0.00 0.00 0.00 0.00 0.00 0.00 0.00 0.00 0.00 0.00 0.00 0.00 0.00 0.00 0.00 0.00 0.00 0.00 0.00 0.00 0.00 0.00 0.00 0.00 0.00 0.00 0.00 0.00 0.00 0.00 0.00 0.00 0.00 0.00 0.00 0.00 0.00 0.00
0.00 0.00 0.00 0.00 0.00 0.00 0.00 0.00 0.00 0.00 0.00 0.00 0.00 0.00 0.00 0.00 0.00 0.00 0.00 0.00 0.00 0.00 0.00 0.00 0.00 0.00 0.00 0.00 0.00 0.00 0.00 0.00 0.00 0.00 0.00 0.00 0.00 0.00 0.00 0.00 0.00 0.00 0.00 0.00 0.00 0.00 0.00 0.00 0.00
0.00 0.00 0.00 0.00 0.00 0.00 0.00 0.00 0.00 0.00 0.00 0.00 0.00 0.00 0.00 0.00 0.00 0.00 0.00 0.00 0.00 0.00 0.00 0.00 0.00 0.00 0.00 0.00 0.00 0.00 0.00 0.00 0.00 0.00 0.00 0.00 0.00 0.00 0.00 0.00 0.00 0.00 0.00 0.00 0.00 0.00 0.00 0.00 0.00
0.00 0.00 0.00 0.00 0.00 0.00 0.00 0.00 0.00 0.00 0.00 0.00 0.00 0.00 0.00 0.00 0.00 0.00 0.00 0.00 0.00 0.00 0.00 0.00 0.00 0.00 0.00 0.00 0.00 0.00 0.00 0.00 0.00 0.00 0.00 0.00 0.00 0.00 0.00 0.00 0.00 0.00 0.00 0.00 0.00 0.00 0.00 0.00 0.00
0.00 0.00 0.00 0.00 0.01 0.01 0.00 0.00 0.00 0.00 0.00 0.00 0.00 0.00 0.00 0.00 0.00 0.00 0.00 0.00 0.00 0.00 0.00 0.00 0.00 0.00 0.00 0.00 0.00 0.00 0.00 0.00 0.00 0.00 0.00 0.00 0.00 0.00 0.00 0.00 0.00 0.00 0.00 0.00 0.00 0.00 0.00 0.00 0.00
0.01 0.02 0.01 0.01 0.02 0.00 0.00 0.00 0.00 0.00 0.00 0.00 0.00 0.00 0.00 0.00 0.00 0.00 0.00 0.00 0.00 0.00 0.00 0.00 0.00 0.00 0.00 0.00 0.00 0.00 0.00 0.00 0.00 0.00 0.00 0.00 0.00 0.00 0.00 0.00 0.00 0.00 0.00 0.00 0.00 0.00 0.00 0.00 0.00
0.00 0.00 0.00 0.00 0.00 0.00 0.00 0.00 0.00 0.00 0.00 0.00 0.00 0.00 0.00 0.00 0.00 0.00 0.00 0.00 0.00 0.00 0.00 0.00 0.00 0.00 0.00 0.00 0.00 0.00 0.00 0.00 0.00 0.00 0.00 0.00 0.00 0.00 0.00 0.00 0.00 0.00 0.00 0.00 0.00 0.00 0.00 0.00 0.00
0.00 0.01 0.00 0.00 0.00 0.00 0.00 0.00 0.00 0.00 0.00 0.00 0.00 0.00 0.00 0.00 0.00 0.00 0.00 0.00 0.00 0.00 0.00 0.00 0.00 0.00 0.00 0.00 0.00 0.00 0.00 0.00 0.00 0.00 0.00 0.00 0.00 0.00 0.00 0.00 0.00 0.00 0.00 0.00 0.00 0.00 0.00 0.00 0.00
0.00 0.00 0.00 0.00 0.00 0.00 0.00 0.00 0.00 0.00 0.00 0.00 0.00 0.00 0.00 0.00 0.00 0.00 0.00 0.00 0.00 0.00 0.00 0.00 0.00 0.00 0.00 0.00 0.00 0.00 0.00 0.00 0.00 0.00 0.00 0.00 0.00 0.00 0.00 0.00 0.00 0.00 0.00 0.00 0.00 0.00 0.00 0.01 0.01
0.00 0.00 0.00 0.00 0.00 0.00 0.00 0.00 0.00 0.00 0.00 0.00 0.00 0.00 0.00 0.00 0.00 0.00 0.00 0.00 0.00 0.00 0.00 0.00 0.00 0.00 0.00 0.00 0.00 0.00 0.00 0.00 0.00 0.00 0.00 0.00 0.00 0.00 0.00 0.00 0.00 0.00 0.00 0.00 0.00 0.00 0.01 0.01 0.02
0.00 0.00 0.00 0.00 0.00 0.00 0.00 0.00 0.00 0.00 0.00 0.00 0.00 0.00 0.00 0.00 0.00 0.00 0.00 0.00 0.00 0.00 0.00 0.00 0.00 0.00 0.00 0.00 0.00 0.00 0.00 0.00 0.00 0.00 0.00 0.00 0.00 0.00 0.00 0.00 0.00 0.00 0.00 0.00 0.01 0.02 0.01 0.01 0.01
MSLP
1014.92 1014.55 1014.58 1015.05 1016.77 1017.39 1017.41 1017.25 1016.92 1017.23 1017.53 1017.68 1018.07 1018.48 1018.93 1019.26 1019.62 1020.35 1019.76 1019.78 1019.73 1020.02 1020.32 1020.42 1020.48 1020.59 1020.82 1021.07 1021.30 1021.29 1021.32 1021.51 1021.71 1021.96 1022.03 1022.24 1022.32 1022.41 1022.61 1022.72 1022.77 1022.71 1022.91 1023.09 1023.18 1023.14 1023.35 1023.58 1023.81
1015.02 1014.54 1014.93 1016.24 1017.31 1017.96 1017.79 1017.18 1017.02 1017.22 1017.67 1017.87 1018.17 1018.79 1019.09 1019.59 1019.46 1019.63 1019.89 1019.95 1019.83 1020.16 1020.40 1020.59 1020.67 1020.74 1020.99 1021.27 1021.49 1021.66 1021.71 1021.88 1022.02 1022.20 1022.33 1022.51 1022.64 1022.77 1022.95 1023.09 1023.14 1023.14 1023.26 1023.42 1023.50 1023.58 1023.81 1024.03 1024.20
1014.96 1014.96 1016.12 1017.12 1017.97 1017.88 1017.46 1016.96 1017.04 1017.48 1017.85 1018.03 1018.67 1019.01 1019.31 1019.56 1019.57 1019.60 1019.58 1019.76 1020.03 1020.48 1020.61 1020.78 1020.84 1020.88 1021.04 1021.31 1021.56 1021.77 1021.92 1022.17 1022.33 1022.46 1022.59 1022.78 1022.94 1023.09 1023.23 1023.52 1023.61 1023.61 1023.62 1023.79 1023.90 1024.01 1024.30 1024.47 1024.54
1015.61 1015.74 1016.98 1017.48 1017.75 1017.18 1017.01 1016.85 1017.06 1017.66 1017.97 1018.16 1018.68 1019.37 1019.41 1019.25 1019.36 1019.48 1019.65 1019.94 1020.34 1020.65 1020.79 1020.86 1020.97 1021.08 1021.15 1021.41 1021.67 1021.89 1022.08 1022.31 1022.41 1022.61 1022.82 1023.11 1023.34 1023.44 1023.53 1023.80 1023.89 1023.93 1024.02 1024.20 1024.23 1024.38 1024.63 1024.76 1024.84
1016.46 1017.03 1017.64 1017.88 1017.67 1017.09 1016.74 1016.78 1017.06 1017.57 1017.93 1018.36 1018.71 1019.45 1019.58 1019.30 1019.32 1019.56 1019.76 1020.05 1020.53 1020.82 1021.02 1021.08 1021.20 1021.28 1021.39 1021.61 1021.90 1022.05 1022.19 1022.51 1022.59 1022.78 1023.12 1023.37 1023.59 1023.75 1023.90 1024.06 1024.18 1024.34 1024.36 1024.48 1024.59 1024.78 1024.97 1025.09 1025.21
1017.51 1017.86 1018.20 1018.31 1017.82 1017.13 1016.70 1016.78 1017.07 1017.49 1017.98 1018.58 1018.94 1019.56 1019.71 1019.46 1019.63 1019.86 1019.92 1020.15 1020.63 1020.90 1021.05 1021.23 1021.47 1021.65 1021.78 1021.88 1022.07 1022.25 1022.36 1022.68 1022.94 1023.15 1023.41 1023.64 1023.85 1024.02 1024.21 1024.33 1024.55 1024.66 1024.74 1024.90 1025.06 1025.20 1025.27 1025.43 1025.60
1017.85 1019.06 1018.84 1018.47 1018.03 1017.29 1016.81 1016.75 1017.14 1017.60 1017.93 1018.36 1018.73 1019.75 1019.96 1019.76 1019.77 1019.84 1020.12 1020.21 1020.68 1021.15 1021.21 1021.43 1021.58 1021.86 1022.00 1022.25 1022.34 1022.53 1022.64 1022.83 1023.09 1023.38 1023.70 1023.97 1024.18 1024.31 1024.49 1024.71 1024.89 1025.02 1025.12 1025.23 1025.42 1025.55 1025.66 1025.78 1025.95
1018.45 1019.87 1019.35 1018.42 1018.14 1017.39 1016.92 1016.88 1016.90 1017.42 1017.92 1018.30 1018.44 1019.22 1019.61 1019.32 1019.67 1020.05 1020.42 1020.56 1020.93 1021.25 1021.52 1021.70 1021.84 1022.01 1022.18 1022.49 1022.69 1022.77 1022.98 1023.29 1023.33 1023.66 1023.96 1024.22 1024.60 1024.76 1024.86 1025.07 1025.15 1025.23 1025.37 1025.51 1025.67 1025.84 1025.99 1026.04 1026.16
1018.37 1019.96 1019.45 1018.60 1018.07 1017.46 1016.97 1017.04 1017.13 1017.40 1017.92 1018.38 1018.48 1018.58 1018.66 1018.85 1019.69 1020.25 1020.58 1020.93 1021.19 1021.58 1021.70 1021.80 1022.09 1022.37 1022.53 1022.61 1022.82 1023.12 1023.31 1023.46 1023.65 1024.02 1024.32 1024.56 1024.87 1024.99 1025.18 1025.32 1025.42 1025.56 1025.66 1025.73 1025.91 1026.13 1026.23 1026.29 1026.45
1018.95 1019.09 1018.62 1017.89 1017.54 1017.56 1017.18 1017.16 1017.25 1017.61 1018.04 1018.40 1018.46 1018.46 1018.70 1019.10 1019.66 1019.94 1020.29 1020.78 1021.15 1021.51 1021.88 1021.97 1022.14 1022.46 1022.71 1022.78 1023.02 1023.09 1023.43 1023.88 1024.12 1024.44 1024.62 1024.84 1025.10 1025.28 1025.35 1025.41 1025.48 1025.64 1025.80 1025.93 1026.07 1026.32 1026.54 1026.80 1027.02
1019.37 1018.92 1018.12 1017.87 1017.56 1017.47 1017.48 1017.30 1017.43 1017.61 1017.98 1017.73 1017.78 1018.23 1018.86 1019.29 1019.67 1019.86 1020.21 1020.25 1020.76 1021.22 1021.69 1022.03 1022.16 1022.48 1022.75 1023.02 1023.21 1023.50 1023.53 1023.86 1024.34 1024.54 1024.73 1024.96 1025.23 1025.47 1025.65 1025.74 1025.93 1026.09 1026.17 1026.44 1026.56 1026.73 1026.92 1027.07 1027.22
1019.29 1018.83 1018.25 1017.92 1017.92 1017.89 1017.78 1017.42 1017.40 1017.64 1017.20 1017.24 1017.30 1017.81 1018.55 1018.98 1019.28 1019.46 1019.83 1020.20 1020.75 1020.96 1021.32 1021.90 1022.06 1022.43 1022.71 1023.01 1023.23 1023.40 1023.82 1024.26 1024.61 1024.85 1025.01 1025.20 1025.55 1025.90 1026.06 1026.16 1026.27 1026.45 1026.64 1026.73 1026.85 1027.02 1027.15 1027.23 1027.33
1019.19 1018.77 1018.47 1018.10 1018.16 1018.14 1017.88 1017.56 1017.33 1017.22 1016.97 1017.21 1017.50 1017.96 1018.40 1018.73 1019.06 1019.38 1019.68 1020.03 1020.49 1020.76 1021.08 1021.56 1021.90 1022.27 1022.68 1023.02 1023.35 1023.53 1023.77 1024.16 1024.41 1024.73 1024.98 1025.22 1025.60 1025.90 1026.07 1026.26 1026.48 1026.70 1026.75 1026.82 1026.97 1027.12 1027.22 1027.32 1027.49
1018.66 1018.69 1018.80 1018.51 1018.30 1018.30 1018.09 1017.68 1017.51 1016.82 1017.01 1017.55 1017.97 1018.09 1018.35 1018.52 1018.64 1019.28 1019.45 1019.75 1020.11 1020.36 1020.71 1021.15 1021.61 1021.86 1022.41 1022.89 1023.29 1023.57 1023.71 1023.91 1024.26 1024.52 1024.77 1025.05 1025.24 1025.51 1025.81 1026.16 1026.34 1026.47 1026.62 1026.89 1027.09 1027.19 1027.33 1027.50 1027.53
1018.68 1019.06 1018.99 1018.75 1018.65 1018.54 1018.09 1017.39 1016.96 1016.49 1016.84 1017.69 1018.19 1018.42 1018.52 1018.50 1018.63 1018.34 1018.64 1019.15 1019.40 1019.75 1020.20 1020.63 1021.13 1021.69 1022.05 1022.48 1022.98 1023.38 1023.63 1023.82 1024.10 1024.38 1024.65 1024.88 1025.11 1025.51 1025.85 1026.03 1026.20 1026.37 1026.56 1026.59 1026.85 1027.00 1027.15 1027.37 1027.45
1019.09 1019.25 1019.23 1018.49 1018.50 1018.24 1018.14 1016.49 1015.84 1016.32 1016.81 1017.25 1017.85 1018.29 1018.46 1018.28 1018.05 1018.28 1018.30 1018.71 1019.02 1019.37 1019.81 1020.30 1020.50 1021.22 1021.76 1022.08 1022.51 1022.90 1023.20 1023.56 1023.78 1023.91 1024.06 1024.39 1024.85 1025.28 1025.72 1026.04 1026.15 1026.22 1026.42 1026.73 1026.81 1027.03 1027.24 1027.46 1027.64
1019.34 1019.01 1019.01 1018.82 1018.48 1018.43 1018.05 1016.76 1015.86 1016.02 1016.67 1017.07 1017.29 1017.66 1017.94 1017.89 1018.01 1018.02 1017.91 1018.13 1018.48 1018.76 1019.36 1019.89 1020.21 1020.68 1021.28 1021.76 1022.22 1022.58 1022.87 1023.16 1023.33 1023.64 1023.94 1024.10 1024.40 1024.76 1025.33 1025.73 1025.90 1026.11 1026.37 1026.52 1026.64 1026.91 1027.10 1027.36 1027.64
1018.59 1019.09 1018.91 1018.77 1018.52 1018.66 1018.21 1016.86 1016.14 1016.02 1016.30 1016.47 1016.71 1017.01 1017.22 1017.22 1016.84 1017.00 1017.62 1017.63 1018.05 1018.48 1018.79 1019.34 1019.73 1020.17 1020.79 1021.43 1022.02 1022.38 1022.70 1022.84 1023.00 1023.28 1023.49 1023.89 1024.32 1024.70 1024.99 1025.33 1025.62 1025.78 1026.07 1026.34 1026.58 1026.81 1026.90 1027.02 1027.30
1018.34 1018.58 1018.69 1018.54 1018.37 1018.68 1018.00 1016.99 1016.26 1015.97 1016.44 1016.44 1016.45 1016.32 1016.25 1016.15 1015.76 1016.53 1017.02 1017.47 1017.72 1018.17 1018.47 1018.69 1019.24 1019.66 1020.34 1021.06 1021.68 1022.13 1022.22 1022.44 1022.74 1022.74 1022.93 1023.32 1023.68 1024.20 1024.58 1024.84 1025.23 1025.50 1025.75 1025.87 1026.09 1026.42 1026.61 1026.96 1027.10
1018.50 1018.62 1018.52 1018.36 1018.22 1018.65 1017.90 1016.92 1015.97 1015.75 1015.61 1015.12 1015.18 1015.35 1015.21 1015.26 1015.46 1015.69 1016.18 1016.66 1016.88 1017.20 1017.55 1018.11 1018.41 1018.99 1019.52 1019.94 1020.32 1020.86 1021.38 1021.77 1021.89 1022.14 1022.50 1022.77 1023.14 1023.30 1023.66 1024.10 1024.45 1024.77 1025.20 1025.45 1025.76 1026.09 1026.37 1026.52 1026.82
1017.83 1018.10 1018.48 1018.58 1018.45 1018.46 1018.17 1016.64 1015.59 1014.76 1014.33 1013.96 1013.93 1013.75 1013.80 1014.08 1014.47 1014.71 1015.24 1015.45 1015.87 1016.25 1016.78 1017.17 1017.47 1018.03 1018.57 1019.17 1019.79 1020.46 1020.94 1021.29 1021.70 1021.84 1021.89 1022.00 1022.36 1022.75 1023.05 1023.26 1023.49 1023.96 1024.41 1024.72 1024.90 1025.30 1025.69 1026.01 1026.29
1017.19 1017.84 1018.26 1018.58 1018.91 1018.84 1018.47 1016.31 1014.58 1013.77 1013.24 1012.81 1012.68 1012.57 1012.31 1013.00 1013.31 1013.39 1013.93 1014.50 1014.83 1015.15 1015.80 1016.06 1016.73 1017.22 1017.82 1018.41 1018.91 1019.21 1019.58 1020.05 1020.18 1020.64 1021.08 1021.34 1021.56 1021.89 1022.16 1022.35 1022.74 1023.15 1023.50 1023.84 1024.02 1024.34 1024.81 1025.25 1025.43
1016.56 1017.31 1018.11 1018.59 1018.89 1018.96 1018.48 1017.98 1013.72 1013.31 1012.78 1011.80 1011.43 1011.30 1011.33 1011.70 1012.05 1012.17 1012.51 1012.88 1013.21 1013.87 1014.42 1015.06 1015.80 1016.42 1016.80 1017.24 1017.70 1018.29 1018.61 1018.91 1019.36 1019.86 1020.36 1020.66 1020.86 1021.00 1021.37 1021.57 1021.90 1022.21 1022.55 1022.89 1023.25 1023.66 1023.99 1024.26 1024.42
1016.44 1017.49 1018.25 1018.82 1019.25 1018.49 1017.65 1017.77 1012.89 1012.43 1011.33 1010.28 1010.30 1010.29 1010.07 1010.43 1010.85 1011.10 1011.21 1011.70 1012.27 1012.90 1013.57 1014.20 1014.76 1014.90 1015.64 1016.29 1016.86 1017.22 1017.55 1018.07 1018.74 1019.26 1019.80 1020.06 1020.23 1020.30 1020.45 1020.84 1021.13 1021.40 1021.66 1021.89 1022.11 1022.43 1023.00 1023.34 1023.52
1016.15 1016.79 1017.86 1018.81 1018.89 1017.13 1016.04 1016.65 1011.60 1011.02 1010.12 1009.68 1009.79 1009.49 1009.41 1009.71 1010.11 1010.38 1010.73 1011.17 1011.39 1011.83 1012.42 1013.03 1013.72 1014.20 1014.75 1015.25 1015.78 1016.05 1016.34 1017.16 1017.64 1018.08 1018.53 1018.84 1019.20 1019.50 1019.63 1020.03 1020.38 1020.53 1020.71 1021.03 1021.50 1021.90 1022.09 1022.54 1022.76
1014.05 1014.93 1015.77 1017.00 1017.88 1016.53 1016.45 1014.20 1010.88 1009.98 1009.03 1008.85 1008.99 1008.92 1009.02 1009.04 1009.34 1009.59 1009.78 1009.97 1010.30 1010.74 1011.32 1011.95 1012.70 1013.26 1013.74 1014.17 1014.61 1015.16 1015.70 1016.15 1016.41 1016.98 1017.50 1017.95 1018.28 1018.62 1018.83 1019.27 1019.58 1019.88 1020.08 1020.35 1020.74 1021.15 1021.40 1021.72 1021.87
1013.87 1013.72 1014.26 1016.18 1017.85 1017.36 1015.59 1012.62 1011.11 1009.73 1008.83 1008.43 1008.50 1008.72 1008.48 1008.44 1008.67 1008.85 1009.32 1009.39 1009.55 1009.97 1010.26 1010.74 1011.45 1011.94 1012.51 1013.24 1013.84 1014.48 1014.93 1015.43 1015.66 1016.20 1016.77 1017.11 1017.55 1017.90 1018.39 1018.67 1019.07 1019.21 1019.40 1019.56 1019.86 1020.23 1020.30 1020.51 1020.52
1012.41 1012.85 1014.45 1015.32 1016.54 1016.25 1014.07 1012.50 1009.47 1008.88 1007.94 1008.01 1007.81 1007.66 1007.29 1007.47 1007.97 1008.36 1008.88 1009.07 1009.15 1009.30 1009.64 1010.06 1010.44 1010.96 1011.40 1012.05 1012.85 1013.47 1014.18 1014.66 1015.24 1015.97 1016.23 1016.54 1016.85 1017.32 1017.77 1018.01 1018.17 1018.32 1018.47 1018.66 1018.99 1019.15 1019.18 1019.46 1019.40
1012.05 1012.17 1012.71 1013.68 1014.37 1014.33 1013.08 1009.75 1008.06 1007.81 1007.25 1007.04 1006.44 1006.29 1006.34 1006.74 1007.21 1007.73 1008.33 1008.71 1009.10 1009.43 1009.66 1009.81 1010.22 1010.70 1011.18 1011.59 1012.16 1012.88 1013.39 1013.89 1014.57 1015.06 1015.37 1015.64 1016.14 1016.47 1016.69 1017.06 1017.47 1017.70 1017.83 1017.99 1018.22 1018.31 1018.46 1018.60 1018.58
1010.62 1010.50 1011.74 1012.30 1012.99 1012.85 1012.21 1007.58 1006.82 1006.84 1006.75 1006.70 1006.37 1006.35 1006.35 1006.48 1006.84 1007.44 1007.97 1008.34 1008.71 1009.06 1009.54 1009.60 1009.96 1010.27 1010.65 1011.20 1011.85 1012.42 1012.94 1013.39 1013.93 1014.29 1014.58 1015.02 1015.46 1015.74 1016.07 1016.47 1016.71 1016.92 1017.09 1017.26 1017.49 1017.65 1017.76 1017.85 1017.85
Thickness
5736 5740 5742 5734 5704 5693 5689 5701 5716 5712 5713 5716 5714 5707 5702 5697 5692 5678 5695 5695 5696 5693 5690 5689 5689 5690 5688 5688 5687 5688 5690 5690 5689 5688 5689 5689 5690 5690 5689 5688 5688 5688 5688 5687 5686 5687 5685 5683 5681
5732 5739 5733 5711 5687 5676 5682 5704 5710 5714 5712 5713 5712 5706 5700 5693 5698 5697 5694 5695 5696 5693 5692 5690 5689 5689 5688 5687 5686 5686 5687 5688 5688 5687 5687 5688 5688 5688 5687 5687 5686 5686 5686 5685 5684 5684 5682 5681 5679
5728 5731 5710 5689 5674 5677 5682 5707 5710 5712 5710 5714 5705 5704 5700 5695 5699 5701 5700 5697 5695 5691 5691 5690 5689 5689 5689 5688 5686 5686 5687 5687 5687 5687 5687 5686 5687 5686 5686 5685 5684 5683 5684 5684 5683 5682 5680 5679 5678
5713 5713 5701 5683 5684 5699 5700 5710 5711 5707 5712 5712 5706 5696 5702 5706 5702 5704 5702 5697 5693 5691 5690 5690 5690 5689 5689 5688 5687 5688 5688 5687 5687 5686 5686 5684 5684 5684 5684 5683 5683 5683 5682 5681 5681 5680 5678 5677 5677
5700 5692 5672 5675 5681 5697 5706 5709 5709 5708 5710 5708 5707 5693 5696 5705 5706 5705 5701 5697 5694 5691 5689 5689 5690 5690 5689 5688 5687 5687 5688 5687 5687 5686 5684 5683 5682 5682 5682 5682 5682 5681 5681 5681 5680 5678 5677 5676 5674
5676 5674 5663 5663 5676 5693 5705 5707 5709 5708 5706 5703 5700 5693 5696 5705 5703 5702 5701 5698 5695 5691 5690 5689 5688 5689 5688 5687 5687 5686 5687 5686 5685 5684 5683 5682 5681 5681 5681 5681 5680 5680 5679 5678 5677 5676 5675 5672 5670
5667 5654 5659 5667 5670 5685 5700 5704 5702 5701 5702 5705 5704 5690 5695 5701 5703 5703 5699 5698 5694 5691 5689 5688 5688 5687 5687 5686 5685 5684 5685 5685 5684 5683 5682 5681 5680 5680 5679 5678 5677 5677 5677 5676 5675 5673 5671 5669 5668
5663 5649 5650 5665 5664 5680 5693 5701 5706 5704 5702 5705 5708 5691 5692 5704 5703 5700 5697 5696 5693 5691 5689 5688 5687 5687 5687 5686 5685 5685 5684 5683 5683 5682 5681 5680 5678 5677 5677 5675 5675 5675 5675 5674 5673 5671 5669 5667 5666
5667 5636 5639 5656 5667 5680 5691 5696 5701 5704 5698 5701 5704 5703 5707 5707 5701 5697 5694 5692 5691 5688 5688 5688 5686 5685 5685 5686 5686 5685 5683 5682 5681 5680 5679 5678 5676 5676 5675 5674 5673 5673 5673 5673 5671 5667 5666 5665 5663
5651 5643 5652 5670 5675 5675 5683 5691 5695 5697 5694 5696 5700 5705 5703 5703 5699 5697 5694 5692 5690 5687 5688 5686 5686 5684 5683 5684 5683 5684 5684 5682 5680 5677 5676 5675 5674 5674 5673 5673 5673 5672 5670 5669 5667 5664 5662 5660 5658
5642 5645 5662 5667 5673 5675 5678 5686 5686 5688 5686 5696 5702 5702 5699 5699 5697 5697 5694 5695 5693 5689 5688 5686 5686 5683 5683 5682 5682 5681 5681 5681 5679 5677 5675 5673 5671 5670 5670 5670 5670 5668 5666 5665 5663 5662 5660 5658 5655
5635 5645 5655 5663 5663 5666 5670 5678 5684 5685 5695 5703 5707 5704 5701 5699 5698 5699 5696 5695 5691 5689 5688 5687 5686 5684 5683 5682 5681 5681 5679 5676 5674 5672 5671 5672 5670 5668 5668 5668 5668 5665 5663 5662 5660 5660 5658 5655 5652
5631 5640 5648 5654 5657 5660 5665 5672 5679 5684 5694 5698 5700 5699 5699 5698 5698 5697 5696 5694 5691 5690 5688 5687 5685 5684 5682 5681 5680 5679 5677 5675 5674 5672 5670 5669 5667 5666 5666 5665 5664 5662 5660 5659 5658 5657 5655 5652 5649
5636 5637 5639 5646 5650 5656 5656 5664 5675 5688 5689 5689 5689 5693 5697 5696 5697 5693 5695 5693 5691 5691 5689 5688 5685 5684 5681 5679 5678 5676 5676 5675 5673 5671 5669 5668 5667 5667 5665 5662 5661 5659 5658 5655 5653 5652 5650 5647 5645
5629 5630 5631 5638 5644 5646 5655 5659 5663 5686 5685 5681 5682 5685 5690 5693 5693 5698 5699 5696 5695 5693 5691 5688 5685 5682 5681 5678 5676 5675 5674 5673 5671 5669 5667 5666 5665 5663 5661 5659 5658 5656 5654 5653 5651 5649 5647 5645 5642
5614 5620 5618 5641 5639 5647 5649 5659 5685 5680 5677 5681 5679 5681 5684 5690 5693 5696 5697 5696 5695 5694 5690 5687 5687 5682 5679 5677 5675 5673 5673 5671 5670 5670 5669 5667 5664 5660 5656 5654 5654 5652 5650 5648 5647 5644 5641 5638 5637
5604 5606 5615 5628 5634 5639 5641 5656 5679 5678 5671 5676 5678 5680 5684 5688 5689 5692 5693 5695 5695 5695 5692 5688 5687 5683 5680 5677 5675 5673 5671 5670 5669 5667 5665 5666 5664 5661 5656 5653 5651 5647 5645 5645 5644 5641 5638 5634 5632
5600 5606 5612 5620 5633 5626 5630 5651 5668 5670 5669 5676 5677 5677 5682 5688 5695 5696 5692 5695 5694 5694 5693 5690 5688 5685 5680 5675 5672 5671 5669 5668 5668 5666 5664 5662 5658 5655 5653 5650 5648 5647 5645 5643 5640 5637 5635 5633 5629
5598 5604 5607 5621 5627 5617 5624 5642 5655 5663 5657 5662 5670 5677 5685 5692 5699 5693 5693 5692 5692 5691 5691 5690 5688 5685 5681 5675 5670 5668 5669 5668 5667 5668 5666 5663 5659 5653 5650 5649 5646 5644 5641 5640 5638 5635 5632 5627 5625
5587 5591 5600 5615 5621 5613 5622 5633 5651 5654 5660 5675 5681 5681 5688 5693 5691 5695 5695 5694 5696 5693 5693 5691 5689 5686 5683 5680 5677 5675 5671 5670 5670 5668 5666 5662 5658 5659 5656 5652 5649 5645 5642 5639 5636 5631 5627 5624 5620
5584 5589 5592 5602 5608 5608 5609 5629 5649 5656 5665 5680 5683 5693 5696 5696 5696 5699 5698 5701 5699 5697 5694 5692 5690 5688 5685 5681 5678 5675 5672 5669 5666 5665 5665 5665 5662 5658 5657 5654 5652 5648 5643 5639 5636 5631 5626 5622 5617
5579 5586 5591 5595 5597 5590 5602 5606 5642 5656 5665 5676 5687 5692 5701 5697 5701 5704 5703 5702 5703 5703 5695 5694 5693 5690 5687 5684 5681 5680 5679 5676 5675 5671 5668 5666 5664 5661 5659 5658 5654 5649 5645 5641 5637 5631 5626 5619 5616
5582 5584 5582 5585 5585 5586 5591 5584 5637 5655 5658 5682 5691 5697 5703 5702 5702 5706 5707 5708 5707 5704 5701 5698 5694 5691 5690 5689 5687 5684 5683 5680 5676 5674 5669 5667 5665 5664 5660 5658 5655 5650 5646 5640 5635 5629 5624 5619 5616
5573 5569 5569 5572 5572 5563 5599 5593 5635 5656 5675 5695 5697 5698 5706 5707 5705 5708 5712 5711 5709 5705 5699 5698 5697 5698 5695 5692 5689 5688 5686 5683 5678 5673 5669 5666 5665 5664 5662 5656 5653 5649 5645 5640 5636 5631 5625 5618 5613
5568 5565 5554 5552 5555 5580 5601 5585 5646 5666 5680 5691 5693 5701 5704 5706 5706 5710 5710 5709 5710 5707 5702 5700 5698 5698 5696 5694 5692 5690 5688 5682 5680 5676 5673 5671 5668 5664 5661 5655 5652 5648 5644 5639 5632 5628 5624 5616 5610
5579 5575 5558 5547 5552 5591 5574 5599 5635 5669 5693 5700 5696 5700 5706 5710 5711 5713 5713 5716 5715 5710 5704 5701 5700 5699 5697 5696 5693 5689 5687 5684 5684 5680 5676 5672 5668 5663 5658 5654 5650 5645 5641 5637 5631 5625 5620 5613 5608
5566 5563 5585 5550 5480 5536 5569 5613 5632 5656 5681 5687 5691 5694 5705 5712 5712 5712 5711 5714 5716 5713 5711 5709 5705 5704 5703 5698 5693 5690 5688 5685 5684 5680 5675 5673 5668 5663 5657 5652 5646 5642 5638 5634 5629 5624 5620 5613 5610
5568 5585 5556 5548 5536 5544 5581 5593 5644 5656 5689 5689 5691 5697 5711 5712 5711 5711 5708 5707 5711 5714 5713 5712 5712 5708 5706 5702 5697 5692 5686 5685 5680 5673 5672 5669 5666 5659 5653 5650 5645 5641 5637 5633 5627 5625 5620 5613 5611
5561 5560 5564 5566 5551 5561 5584 5622 5643 5664 5686 5692 5704 5708 5713 5710 5712 5710 5708 5705 5704 5704 5706 5709 5708 5705 5702 5700 5696 5691 5688 5685 5679 5675 5671 5668 5662 5657 5654 5648 5642 5638 5634 5630 5625 5621 5616 5611 5607
5571 5572 5569 5562 5562 5554 5558 5615 5652 5653 5669 5681 5693 5694 5699 5703 5705 5703 5703 5703 5702 5700 5699 5703 5703 5703 5701 5696 5692 5688 5684 5680 5676 5672 5669 5663 5658 5654 5649 5644 5640 5636 5631 5626 5621 5616 5612 5607 5603